﻿_id,日時,平均風速(m/s),平均風向,最大瞬間風速(m/s),最大風速時風向,気温(℃),湿度(%),10分間移動積算雨量(mm),1時間移動積算雨量(mm),日雨量(mm),累計雨量(mm)
1,2021-04-19T00:00:00,0.4,東,0.9,東南東,4.2,91.2,0,0,0,0
2,2021-04-19T00:01:00,0.4,東,0.9,東南東,4.2,91.4,0,0,0,0
3,2021-04-19T00:02:00,0.5,東,1,南東,4.2,91.6,0,0,0,0
4,2021-04-19T00:03:00,0.5,東南東,1,南東,4.3,91.6,0,0,0,0
5,2021-04-19T00:04:00,0.5,東南東,1,南東,4.2,91.7,0,0,0,0
6,2021-04-19T00:05:00,0.5,東南東,1,南東,4.4,92.1,0,0,0,0
7,2021-04-19T00:06:00,0.5,南東,1,南東,4.4,92.4,0,0,0,0
8,2021-04-19T00:07:00,0.5,南南東,1,南東,4.5,92.4,0,0,0,0
9,2021-04-19T00:08:00,0.5,南南東,1,南東,4.4,92.1,0,0,0,0
10,2021-04-19T00:09:00,0.5,南南東,1,南東,4.2,91.2,0,0,0,0
11,2021-04-19T00:10:00,0.5,北北西,1,南東,3.9,90.4,0,0,0,0
12,2021-04-19T00:11:00,0.5,北北西,1,南東,3.9,90.4,0,0,0,0
13,2021-04-19T00:12:00,0.4,北,0.8,北東,4,91,0,0,0,0
14,2021-04-19T00:13:00,0.4,北,0.8,北東,3.9,91.5,0,0,0,0
15,2021-04-19T00:14:00,0.4,北,0.8,北東,4,91.5,0,0,0,0
16,2021-04-19T00:15:00,0.3,北北東,0.8,北東,3.9,91.7,0,0,0,0
17,2021-04-19T00:16:00,0.3,北北東,0.8,北東,4,92,0,0,0,0
18,2021-04-19T00:17:00,0.3,北北東,0.8,北東,4,92,0,0,0,0
19,2021-04-19T00:18:00,0.3,北北東,0.8,北東,4,92.2,0,0,0,0
20,2021-04-19T00:19:00,0.3,北北東,0.8,北東,3.9,91.7,0,0,0,0
21,2021-04-19T00:20:00,0.2,静穏,0.8,北東,3.8,91.6,0,0,0,0
22,2021-04-19T00:21:00,0.2,静穏,0.6,北東,3.9,92,0,0,0,0
23,2021-04-19T00:22:00,0.1,静穏,0.4,南南東,4.2,92.7,0,0,0,0
24,2021-04-19T00:23:00,0.1,静穏,0.4,南南東,4.3,93.1,0,0,0,0
25,2021-04-19T00:24:00,0.2,静穏,0.4,南南東,4.1,92.6,0,0,0,0
26,2021-04-19T00:25:00,0.2,静穏,0.4,南南東,4.1,92,0,0,0,0
27,2021-04-19T00:26:00,0.2,静穏,0.4,南南東,4.2,92.2,0,0,0,0
28,2021-04-19T00:27:00,0.2,静穏,0.4,南南東,4.1,92,0,0,0,0
29,2021-04-19T00:28:00,0.2,静穏,0.4,南南東,4.1,91.9,0,0,0,0
30,2021-04-19T00:29:00,0.1,静穏,0.4,南南東,4.2,92.1,0,0,0,0
31,2021-04-19T00:30:00,0.1,静穏,0.4,南南東,4,91.7,0,0,0,0
32,2021-04-19T00:31:00,0.1,静穏,0.5,東,4,91.3,0,0,0,0
33,2021-04-19T00:32:00,0.2,静穏,0.5,東,4,91.5,0,0,0,0
34,2021-04-19T00:33:00,0.2,静穏,0.8,東,4,91.5,0,0,0,0
35,2021-04-19T00:34:00,0.3,東,1,東南東,3.9,91.4,0,0,0,0
36,2021-04-19T00:35:00,0.4,東南東,1.4,東南東,3.9,91.3,0,0,0,0
37,2021-04-19T00:36:00,0.5,東南東,1.4,東南東,3.8,91.3,0,0,0,0
38,2021-04-19T00:37:00,0.6,東南東,1.4,東南東,3.8,91.3,0,0,0,0
39,2021-04-19T00:38:00,0.7,東南東,1.4,東南東,3.7,91.1,0,0,0,0
40,2021-04-19T00:39:00,0.7,東南東,1.4,東南東,3.7,91.3,0,0,0,0
41,2021-04-19T00:40:00,0.8,東南東,1.4,東南東,3.8,91.7,0,0,0,0
42,2021-04-19T00:41:00,0.9,東南東,1.4,東南東,3.9,91.9,0,0,0,0
43,2021-04-19T00:42:00,0.9,東南東,1.4,東南東,3.9,92,0,0,0,0
44,2021-04-19T00:43:00,0.9,東南東,1.4,東南東,3.9,91.9,0,0,0,0
45,2021-04-19T00:44:00,0.8,東南東,1.4,東南東,3.9,92.1,0,0,0,0
46,2021-04-19T00:45:00,0.7,東,1.4,東南東,3.7,91.3,0,0,0,0
47,2021-04-19T00:46:00,0.6,東,1.3,東,3.5,90.8,0,0,0,0
48,2021-04-19T00:47:00,0.5,東,1.2,東南東,3.4,90.6,0,0,0,0
49,2021-04-19T00:48:00,0.5,東,1,東南東,3.4,90.8,0,0,0,0
50,2021-04-19T00:49:00,0.5,東北東,1,東南東,3.4,91.1,0,0,0,0
51,2021-04-19T00:50:00,0.4,東北東,1,東南東,3.4,91.4,0,0,0,0
52,2021-04-19T00:51:00,0.4,東北東,0.8,東,3.5,91.9,0,0,0,0
53,2021-04-19T00:52:00,0.4,東北東,0.6,北北東,3.6,92.2,0,0,0,0
54,2021-04-19T00:53:00,0.4,東北東,0.6,北北東,3.6,92.3,0,0,0,0
55,2021-04-19T00:54:00,0.4,東北東,0.6,北北東,3.7,92.6,0,0,0,0
56,2021-04-19T00:55:00,0.4,東北東,0.6,北北東,3.8,93.2,0,0,0,0
57,2021-04-19T00:56:00,0.3,東北東,0.6,北北東,3.8,92.9,0,0,0,0
58,2021-04-19T00:57:00,0.3,東北東,0.6,北北東,3.7,92.5,0,0,0,0
59,2021-04-19T00:58:00,0.3,東北東,0.6,北北東,3.5,91.7,0,0,0,0
60,2021-04-19T00:59:00,0.3,東北東,0.6,北北東,3.4,91.1,0,0,0,0
61,2021-04-19T01:00:00,0.3,東北東,0.8,北北東,3.4,91.4,0,0,0,0
62,2021-04-19T01:01:00,0.3,東北東,0.8,北北東,3.3,91.4,0,0,0,0
63,2021-04-19T01:02:00,0.3,北東,0.8,北北東,3.3,91.6,0,0,0,0
64,2021-04-19T01:03:00,0.2,静穏,0.8,北北東,3.3,91.8,0,0,0,0
65,2021-04-19T01:04:00,0.2,静穏,0.8,北北東,3.4,92.1,0,0,0,0
66,2021-04-19T01:05:00,0.3,北東,0.8,北北東,3.4,92.4,0,0,0,0
67,2021-04-19T01:06:00,0.3,北東,0.8,北北東,3.3,92.1,0,0,0,0
68,2021-04-19T01:07:00,0.3,北東,0.8,北北東,3.2,92,0,0,0,0
69,2021-04-19T01:08:00,0.4,北東,0.8,北北東,3.3,92.3,0,0,0,0
70,2021-04-19T01:09:00,0.3,東北東,0.8,北北東,3.3,92.6,0,0,0,0
71,2021-04-19T01:10:00,0.3,東北東,0.7,北東,3.3,92.3,0,0,0,0
72,2021-04-19T01:11:00,0.3,東北東,0.6,北北東,3.3,92.5,0,0,0,0
73,2021-04-19T01:12:00,0.2,静穏,0.6,北北東,3.4,92.6,0,0,0,0
74,2021-04-19T01:13:00,0.3,東,0.6,北北東,3.4,92.8,0,0,0,0
75,2021-04-19T01:14:00,0.3,東,0.7,南南東,3.7,93.4,0,0,0,0
76,2021-04-19T01:15:00,0.3,東南東,0.7,南南東,3.8,93.9,0,0,0,0
77,2021-04-19T01:16:00,0.3,東南東,0.7,南南東,3.6,93,0,0,0,0
78,2021-04-19T01:17:00,0.3,南東,0.7,南南東,3.6,92.5,0,0,0,0
79,2021-04-19T01:18:00,0.3,南東,0.7,南南東,3.5,92.6,0,0,0,0
80,2021-04-19T01:19:00,0.3,南東,0.7,南南東,3.4,92.1,0,0,0,0
81,2021-04-19T01:20:00,0.3,東南東,0.8,東北東,3.3,91.8,0,0,0,0
82,2021-04-19T01:21:00,0.3,東南東,0.8,東北東,3.2,91.5,0,0,0,0
83,2021-04-19T01:22:00,0.3,東南東,0.8,東北東,3.2,91.8,0,0,0,0
84,2021-04-19T01:23:00,0.3,東南東,0.8,東北東,3.2,92,0,0,0,0
85,2021-04-19T01:24:00,0.3,東,0.8,東北東,3.3,92.2,0,0,0,0
86,2021-04-19T01:25:00,0.3,東,0.8,東北東,3.7,93.5,0,0,0,0
87,2021-04-19T01:26:00,0.3,東,1.1,東南東,3.5,93.3,0,0,0,0
88,2021-04-19T01:27:00,0.4,東,1.1,東南東,3.5,92.4,0,0,0,0
89,2021-04-19T01:28:00,0.4,東,1.1,東南東,3.5,92.5,0,0,0,0
90,2021-04-19T01:29:00,0.4,東,1.1,東南東,3.6,92.7,0,0,0,0
91,2021-04-19T01:30:00,0.3,東南東,1.1,東南東,3.5,92.6,0,0,0,0
92,2021-04-19T01:31:00,0.3,東,1.1,東南東,3.4,92,0,0,0,0
93,2021-04-19T01:32:00,0.3,東,1.1,東南東,3.2,91.5,0,0,0,0
94,2021-04-19T01:33:00,0.3,東,1.1,東南東,3.2,91.4,0,0,0,0
95,2021-04-19T01:34:00,0.4,東,1.1,東南東,3.2,91.8,0,0,0,0
96,2021-04-19T01:35:00,0.4,東,1.1,東南東,3.3,92.3,0,0,0,0
97,2021-04-19T01:36:00,0.5,東,1.1,南東,3.3,92.4,0,0,0,0
98,2021-04-19T01:37:00,0.5,東,1.2,東南東,3.3,92.4,0,0,0,0
99,2021-04-19T01:38:00,0.6,東,1.2,東南東,3.3,92.4,0,0,0,0
100,2021-04-19T01:39:00,0.7,東,1.2,東南東,3.4,92.4,0,0,0,0
101,2021-04-19T01:40:00,0.7,東,1.2,東南東,3.3,92.5,0,0,0,0
102,2021-04-19T01:41:00,0.8,東,1.2,東南東,3.5,92.6,0,0,0,0
103,2021-04-19T01:42:00,0.7,東南東,1.2,東南東,3.4,92.7,0,0,0,0
104,2021-04-19T01:43:00,0.8,東,1.2,東南東,3.3,92.4,0,0,0,0
105,2021-04-19T01:44:00,0.8,東,1.2,東南東,3.2,92.1,0,0,0,0
106,2021-04-19T01:45:00,0.7,東,1.2,東南東,3.1,91.9,0,0,0,0
107,2021-04-19T01:46:00,0.7,東,1.2,東南東,3.1,91.9,0,0,0,0
108,2021-04-19T01:47:00,0.7,東北東,1.2,東南東,3.1,92,0,0,0,0
109,2021-04-19T01:48:00,0.6,東北東,1.1,東南東,3.1,92.3,0,0,0,0
110,2021-04-19T01:49:00,0.5,東北東,0.9,東北東,3.1,92.3,0,0,0,0
111,2021-04-19T01:50:00,0.4,東北東,0.9,東北東,3.1,92.3,0,0,0,0
112,2021-04-19T01:51:00,0.4,東北東,0.9,東北東,3.1,92.4,0,0,0,0
113,2021-04-19T01:52:00,0.4,東北東,0.9,東北東,3.2,92.8,0,0,0,0
114,2021-04-19T01:53:00,0.4,東,0.8,東北東,3.2,92.9,0,0,0,0
115,2021-04-19T01:54:00,0.3,東,0.8,東北東,3.3,93.1,0,0,0,0
116,2021-04-19T01:55:00,0.3,東,0.8,東北東,3.3,93.3,0,0,0,0
117,2021-04-19T01:56:00,0.2,静穏,0.8,東北東,3.1,92.7,0,0,0,0
118,2021-04-19T01:57:00,0.2,静穏,0.6,北北東,3.1,92.4,0,0,0,0
119,2021-04-19T01:58:00,0.2,静穏,0.6,北北東,3.2,92.7,0,0,0,0
120,2021-04-19T01:59:00,0.2,静穏,0.6,北北東,3.1,92.5,0,0,0,0
121,2021-04-19T02:00:00,0.2,静穏,0.6,北北東,3,92.4,0,0,0,0
122,2021-04-19T02:01:00,0.2,静穏,0.6,北北東,3.1,92.6,0,0,0,0
123,2021-04-19T02:02:00,0.2,静穏,0.6,北北東,3.2,92.7,0,0,0,0
124,2021-04-19T02:03:00,0.2,静穏,0.6,北北東,3.2,93.1,0,0,0,0
125,2021-04-19T02:04:00,0.2,静穏,0.6,北北東,3.1,93,0,0,0,0
126,2021-04-19T02:05:00,0.2,静穏,0.6,北北東,3.1,92.7,0,0,0,0
127,2021-04-19T02:06:00,0.2,静穏,0.5,北北東,3.2,92.9,0,0,0,0
128,2021-04-19T02:07:00,0.2,静穏,0.4,東,3.1,93,0,0,0,0
129,2021-04-19T02:08:00,0.2,静穏,0.5,東,3.2,92.8,0,0,0,0
130,2021-04-19T02:09:00,0.2,静穏,0.5,東,3.4,93.3,0,0,0,0
131,2021-04-19T02:10:00,0.3,東北東,0.8,南南東,3.6,94.2,0,0,0,0
132,2021-04-19T02:11:00,0.3,東,0.8,南南東,3.4,93.6,0,0,0,0
133,2021-04-19T02:12:00,0.3,東,0.8,南南東,3.4,92.9,0,0,0,0
134,2021-04-19T02:13:00,0.3,東南東,0.8,南南東,3.3,92.8,0,0,0,0
135,2021-04-19T02:14:00,0.4,東南東,0.8,南南東,3.3,92.7,0,0,0,0
136,2021-04-19T02:15:00,0.4,東南東,0.8,南南東,3.3,92.6,0,0,0,0
137,2021-04-19T02:16:00,0.4,東南東,0.8,南南東,3.1,92.2,0,0,0,0
138,2021-04-19T02:17:00,0.4,東南東,0.8,南南東,3.1,91.9,0,0,0,0
139,2021-04-19T02:18:00,0.4,東南東,0.8,南南東,3.2,92.3,0,0,0,0
140,2021-04-19T02:19:00,0.4,東南東,0.8,南南東,3.3,92.7,0,0,0,0
141,2021-04-19T02:20:00,0.3,東南東,0.8,南,3.3,93.1,0,0,0,0
142,2021-04-19T02:21:00,0.3,東,0.9,東北東,3.1,92.3,0,0,0,0
143,2021-04-19T02:22:00,0.4,東,0.9,東北東,2.9,91.7,0,0,0,0
144,2021-04-19T02:23:00,0.4,東,0.9,東北東,3,92,0,0,0,0
145,2021-04-19T02:24:00,0.4,東,0.9,東北東,3,92.3,0,0,0,0
146,2021-04-19T02:25:00,0.5,東,0.9,東北東,3,92.5,0,0,0,0
147,2021-04-19T02:26:00,0.5,東,1.1,東南東,3.1,92.7,0,0,0,0
148,2021-04-19T02:27:00,0.5,東,1.1,東南東,3.2,92.8,0,0,0,0
149,2021-04-19T02:28:00,0.6,東,1.1,東南東,3.1,92.9,0,0,0,0
150,2021-04-19T02:29:00,0.6,東,1.1,東南東,3.1,92.7,0,0,0,0
151,2021-04-19T02:30:00,0.6,東,1.1,東南東,3.3,93,0,0,0,0
152,2021-04-19T02:31:00,0.5,東,1.1,東南東,3.6,93.8,0,0,0,0
153,2021-04-19T02:32:00,0.5,東,1.2,北東,3.4,94,0,0,0,0
154,2021-04-19T02:33:00,0.6,東,1.5,北北東,3,92.1,0,0,0,0
155,2021-04-19T02:34:00,0.7,東,1.5,北北東,2.9,91.3,0,0,0,0
156,2021-04-19T02:35:00,0.7,東,1.5,北北東,2.8,91.3,0,0,0,0
157,2021-04-19T02:36:00,0.7,東北東,1.5,北北東,2.8,91.7,0,0,0,0
158,2021-04-19T02:37:00,0.7,東北東,1.5,北北東,2.9,92.3,0,0,0,0
159,2021-04-19T02:38:00,0.7,東北東,1.5,北北東,3,92.7,0,0,0,0
160,2021-04-19T02:39:00,0.7,東,1.5,北北東,3,92.8,0,0,0,0
161,2021-04-19T02:40:00,0.7,東,1.5,北北東,2.9,92.6,0,0,0,0
162,2021-04-19T02:41:00,0.8,東,1.5,北北東,2.9,92.6,0,0,0,0
163,2021-04-19T02:42:00,0.8,東,1.5,北北東,3.4,93.2,0,0,0,0
164,2021-04-19T02:43:00,0.7,東,1.5,北東,3.4,94.4,0,0,0,0
165,2021-04-19T02:44:00,0.6,東,1.2,東北東,3.2,93.4,0,0,0,0
166,2021-04-19T02:45:00,0.5,東,1.2,東北東,2.9,91.9,0,0,0,0
167,2021-04-19T02:46:00,0.5,東,1.1,東,2.7,91.5,0,0,0,0
168,2021-04-19T02:47:00,0.5,東,1,東北東,2.6,91.4,0,0,0,0
169,2021-04-19T02:48:00,0.6,東,1,東北東,2.6,91.6,0,0,0,0
170,2021-04-19T02:49:00,0.6,東,1,東北東,2.6,91.9,0,0,0,0
171,2021-04-19T02:50:00,0.6,東北東,1.2,東北東,2.7,92.3,0,0,0,0
172,2021-04-19T02:51:00,0.6,東北東,1.2,東北東,2.7,92.5,0,0,0,0
173,2021-04-19T02:52:00,0.7,東北東,1.2,東北東,2.7,92.7,0,0,0,0
174,2021-04-19T02:53:00,0.7,東北東,1.2,東北東,2.8,92.8,0,0,0,0
175,2021-04-19T02:54:00,0.8,東北東,1.2,東北東,2.8,93,0,0,0,0
176,2021-04-19T02:55:00,0.8,東北東,1.2,東北東,2.8,93,0,0,0,0
177,2021-04-19T02:56:00,0.8,東,1.2,東北東,2.8,93,0,0,0,0
178,2021-04-19T02:57:00,0.8,東,1.2,東北東,2.8,92.9,0,0,0,0
179,2021-04-19T02:58:00,0.7,東,1.2,東北東,2.7,92.8,0,0,0,0
180,2021-04-19T02:59:00,0.7,東,1.2,東北東,2.7,92.9,0,0,0,0
181,2021-04-19T03:00:00,0.7,東,1.5,東北東,2.6,92.7,0,0,0,0
182,2021-04-19T03:01:00,0.8,東,1.5,東北東,2.6,92.5,0,0,0,0
183,2021-04-19T03:02:00,0.7,東,1.5,東北東,2.6,92.5,0,0,0,0
184,2021-04-19T03:03:00,0.7,東,1.5,東北東,2.6,92.7,0,0,0,0
185,2021-04-19T03:04:00,0.7,東,1.5,東北東,2.5,92.8,0,0,0,0
186,2021-04-19T03:05:00,0.7,東,1.5,東北東,2.5,92.8,0,0,0,0
187,2021-04-19T03:06:00,0.8,東,1.5,東北東,2.5,92.9,0,0,0,0
188,2021-04-19T03:07:00,0.8,東北東,1.5,東北東,2.5,92.9,0,0,0,0
189,2021-04-19T03:08:00,0.8,東北東,1.5,東北東,2.4,92.9,0,0,0,0
190,2021-04-19T03:09:00,0.9,東北東,1.5,東北東,2.4,92.8,0,0,0,0
191,2021-04-19T03:10:00,0.9,東北東,1.5,北東,2.3,92.7,0,0,0,0
192,2021-04-19T03:11:00,0.9,東北東,1.5,北東,2.4,92.8,0,0,0,0
193,2021-04-19T03:12:00,0.9,東北東,1.5,北東,2.5,93.2,0,0,0,0
194,2021-04-19T03:13:00,0.8,東北東,1.5,北東,2.5,93.6,0,0,0,0
195,2021-04-19T03:14:00,0.8,東北東,1.5,北東,2.7,93.8,0,0,0,0
196,2021-04-19T03:15:00,0.8,東北東,1.5,北東,2.9,94.4,0,0,0,0
197,2021-04-19T03:16:00,0.7,東北東,1.5,北東,2.7,94.2,0,0,0,0
198,2021-04-19T03:17:00,0.7,東北東,1.5,北東,2.6,93.5,0,0,0,0
199,2021-04-19T03:18:00,0.6,東北東,1.5,北東,2.6,93.3,0,0,0,0
200,2021-04-19T03:19:00,0.5,東北東,1.1,北東,2.6,93.4,0,0,0,0
201,2021-04-19T03:20:00,0.5,東,1.3,東南東,2.7,93.5,0,0,0,0
202,2021-04-19T03:21:00,0.5,東,1.3,東南東,2.6,93.4,0,0,0,0
203,2021-04-19T03:22:00,0.5,東,1.3,東南東,2.7,93.5,0,0,0,0
204,2021-04-19T03:23:00,0.5,東,1.3,東南東,2.6,93.5,0,0,0,0
205,2021-04-19T03:24:00,0.5,東,1.3,東南東,2.6,93.4,0,0,0,0
206,2021-04-19T03:25:00,0.6,東,1.3,東南東,2.6,93.2,0,0,0,0
207,2021-04-19T03:26:00,0.7,東,1.4,東,2.5,93.2,0,0,0,0
208,2021-04-19T03:27:00,0.8,東,1.6,東,2.6,93.2,0,0,0,0
209,2021-04-19T03:28:00,0.9,東,2.2,東南東,2.5,93.2,0,0,0,0
210,2021-04-19T03:29:00,1,東,2.2,東南東,2.5,93.2,0,0,0,0
211,2021-04-19T03:30:00,1,東,2.2,東南東,2.5,93.3,0,0,0,0
212,2021-04-19T03:31:00,1,東,2.2,東南東,2.4,93.2,0,0,0,0
213,2021-04-19T03:32:00,1.1,東,2.2,東南東,2.3,93,0,0,0,0
214,2021-04-19T03:33:00,1.2,東,2.2,東南東,2.3,92.8,0,0,0,0
215,2021-04-19T03:34:00,1.3,東,2.2,東南東,2.3,93,0,0,0,0
216,2021-04-19T03:35:00,1.3,東,2.2,東南東,2.4,93.4,0,0,0,0
217,2021-04-19T03:36:00,1.3,東北東,2.2,東南東,2.4,93.6,0,0,0,0
218,2021-04-19T03:37:00,1.3,東北東,2.2,東南東,2.4,93.6,0,0,0,0
219,2021-04-19T03:38:00,1.1,東北東,2.1,東,2.4,93.7,0,0,0,0
220,2021-04-19T03:39:00,1,東北東,1.9,東北東,2.4,93.6,0,0,0,0
221,2021-04-19T03:40:00,1,東北東,1.9,東北東,2.4,93.6,0,0,0,0
222,2021-04-19T03:41:00,1,東北東,1.9,東北東,2.5,93.8,0,0,0,0
223,2021-04-19T03:42:00,0.9,東,1.9,東北東,2.5,93.9,0,0,0,0
224,2021-04-19T03:43:00,0.8,東,1.8,東北東,2.5,93.9,0,0,0,0
225,2021-04-19T03:44:00,0.6,東,1.6,東北東,2.4,93.6,0,0,0,0
226,2021-04-19T03:45:00,0.5,東,1.3,東,2.4,93.4,0,0,0,0
227,2021-04-19T03:46:00,0.5,東,1.2,東北東,2.4,93.6,0,0,0,0
228,2021-04-19T03:47:00,0.5,東,1.2,東北東,2.4,93.7,0,0,0,0
229,2021-04-19T03:48:00,0.5,東,1.2,東北東,2.4,93.7,0,0,0,0
230,2021-04-19T03:49:00,0.4,東,1,東南東,2.5,94,0,0,0,0
231,2021-04-19T03:50:00,0.4,東,1,東南東,2.6,94.3,0,0,0,0
232,2021-04-19T03:51:00,0.4,東,1,東南東,2.6,94,0,0,0,0
233,2021-04-19T03:52:00,0.4,東,1,東南東,2.6,93.9,0,0,0,0
234,2021-04-19T03:53:00,0.4,東南東,1.2,東南東,2.5,93.8,0,0,0,0
235,2021-04-19T03:54:00,0.6,東南東,1.5,南東,2.4,93.4,0,0,0,0
236,2021-04-19T03:55:00,0.6,東南東,1.6,南東,2.3,93.3,0,0,0,0
237,2021-04-19T03:56:00,0.6,東南東,1.6,南東,2.4,93.4,0,0,0,0
238,2021-04-19T03:57:00,0.6,東南東,1.6,南東,2.4,93.6,0,0,0,0
239,2021-04-19T03:58:00,0.7,南東,1.6,南東,2.5,93.9,0,0,0,0
240,2021-04-19T03:59:00,0.7,南東,1.6,南東,2.4,93.8,0,0,0,0
241,2021-04-19T04:00:00,0.8,南東,1.6,南東,2.4,93.6,0,0,0,0
242,2021-04-19T04:01:00,0.9,南東,1.6,南東,2.4,93.6,0,0,0,0
243,2021-04-19T04:02:00,0.9,東南東,1.6,南東,2.4,93.6,0,0,0,0
244,2021-04-19T04:03:00,0.8,東南東,1.6,南東,2.4,93.6,0,0,0,0
245,2021-04-19T04:04:00,0.8,東南東,1.6,南東,2.5,94,0,0,0,0
246,2021-04-19T04:05:00,0.8,東南東,1.4,東,2.4,93.6,0,0,0,0
247,2021-04-19T04:06:00,0.8,東南東,1.4,東,2.4,93.4,0,0,0,0
248,2021-04-19T04:07:00,0.8,東南東,1.4,東,2.4,93.5,0,0,0,0
249,2021-04-19T04:08:00,0.8,東,1.4,東,2.4,93.5,0,0,0,0
250,2021-04-19T04:09:00,0.7,東,1.4,東,2.7,93.9,0,0,0,0
